Weather History for KBDL - October, 2011

Change the Weather History Date:

Friday, October 14, 2011

  Actual Average Record
Temperature  
Mean Temperature 64 °F 53 °F  
Max Temperature 71 °F 64 °F 81 °F (1954)
Min Temperature 57 °F 41 °F 25 °F (1993)
Degree Days  
Heating Degree Days 1 13  
Month to date heating degree days 90 146  
Since 1 July heating degree days 143 268  
Cooling Degree Days 0 0  
Month to date cooling degree days 3 5  
Year to date cooling degree days 935 754  
Growing Degree Days 15 (Base 50)    
Moisture  
Dew Point 61 °F    
Average Humidity 86    
Maximum Humidity 97    
Minimum Humidity 75    
Precipitation  
Precipitation 1.27 in 0.14 in 5.26 in (2005)
Month to date precipitation 3.21 2.10  
Year to date precipitation 57.11 36.25  
Snow  
Snow 0.00 in 0.00 in 0.00 in (2009)
Month to date snowfall 0.0 0.0  
Since 1 July snowfall 0.0 0.0  
Since 1 September snowfall 0.0 0.0  
Snow Depth -    
Sea Level Pressure  
Sea Level Pressure 29.51 in    
Wind  
Wind Speed 8 mph (SSE)    
Max Wind Speed 18 mph    
Max Gust Speed 28 mph    
Visibility 5 miles    
Events Fog , Rain    
T = Trace of Precipitation, MM = Missing Value Source: NWS Daily Summary

Daily Weather History Graph

Daily Weather History Graph

Search for Another Location

Airport or City:

Trip Planner

Search our weather history database for the weather conditions in past years. The results will help you decide how hot, cold, wet, or windy it might be!

Date:

Astronomy

Oct. 14, 2011 Rise Set
Actual Time 7:01 AM EDT 6:11 PM EDT
Civil Twilight 6:33 AM EDT 6:39 PM EDT
Nautical Twilight 6:01 AM EDT 7:11 PM EDT
Astronomical Twilight 5:28 AM EDT 7:43 PM EDT
Moon 7:19 PM EDT (10/14) 9:30 AM EDT (10/14)
Length of Visible Light 12h 05m
Length of Day
11h 09m
Waning Gibbous, 94% of the Moon is Illuminated
Oct 14
Waning Gibbous
Oct 19
Last Quarter
Oct 26
New
Nov 2
First Quarter
Nov 10
Full

Hourly Weather History & Observations

Time (EDT) Temp. Dew Point Humidity Pressure Visibility Wind Dir Wind Speed Gust Speed Precip Events Conditions
12:51 AM 60.1 °F 57.9 °F 93% 29.74 in 2.0 mi North 4.6 mph - 0.00 in   Light Drizzle
1:51 AM 60.1 °F 57.9 °F 93% 29.71 in 2.0 mi North 6.9 mph - 0.00 in   Overcast
2:51 AM 59.0 °F 57.9 °F 96% 29.69 in 1.5 mi NNE 5.8 mph - 0.00 in Rain Light Rain
3:51 AM 59.0 °F 57.9 °F 96% 29.69 in 1.5 mi NNW 4.6 mph - 0.02 in Rain Light Rain
4:12 AM 60.8 °F 57.2 °F 88% 29.69 in 5.0 mi NNW 3.5 mph - 0.18 in Rain Light Rain
4:35 AM 60.8 °F 57.2 °F 88% 29.68 in 3.0 mi NNW 3.5 mph - 0.19 in Rain Rain
4:51 AM 60.1 °F 57.9 °F 93% 29.68 in 3.0 mi North 3.5 mph - 0.20 in Rain Light Rain
5:51 AM 60.1 °F 57.9 °F 93% 29.66 in 3.0 mi NE 9.2 mph - 0.01 in   Overcast
6:38 AM 60.8 °F 57.2 °F 88% 29.65 in 4.0 mi North 4.6 mph - N/A   Overcast
6:51 AM 61.0 °F 59.0 °F 93% 29.65 in 4.0 mi NNE 5.8 mph - N/A   Overcast
7:51 AM 61.0 °F 59.0 °F 93% 29.64 in 5.0 mi NNE 4.6 mph - 0.00 in Rain Light Rain
8:51 AM 64.0 °F 62.1 °F 93% 29.61 in 10.0 mi East 8.1 mph - 0.03 in   Overcast
9:51 AM 64.9 °F 63.0 °F 93% 29.57 in 2.5 mi East 5.8 mph - 0.00 in Rain Rain
9:57 AM 64.4 °F 62.6 °F 94% 29.57 in 1.2 mi East 6.9 mph - 0.06 in Rain Rain
10:14 AM 64.4 °F 62.6 °F 94% 29.56 in 2.5 mi East 6.9 mph - 0.15 in Rain Rain
10:51 AM 66.0 °F 64.0 °F 93% 29.55 in 2.5 mi Calm Calm - 0.28 in Rain Light Rain
11:01 AM 66.2 °F 64.4 °F 94% 29.54 in 1.5 mi Calm Calm - N/A Rain Rain
11:34 AM 66.2 °F 64.4 °F 94% 29.53 in 0.8 mi West 5.8 mph - 0.13 in Rain Heavy Rain
11:36 AM 66.2 °F 64.4 °F 94% 29.53 in 0.5 mi WSW 4.6 mph - 0.17 in Fog , Rain Heavy Rain
11:51 AM 66.9 °F 64.9 °F 93% 29.52 in 1.5 mi SE 4.6 mph - 0.52 in Rain Rain
11:54 AM 66.2 °F 64.4 °F 94% 29.51 in 2.5 mi SE 3.5 mph - 0.01 in Rain Light Rain
12:12 PM 66.2 °F 66.2 °F 100% 29.51 in 2.5 mi South 5.8 mph - 0.01 in Rain Light Rain
12:39 PM 69.8 °F 66.2 °F 88% 29.49 in 2.5 mi SSE 9.2 mph - 0.04 in Rain Light Rain
12:49 PM 69.8 °F 66.2 °F 88% 29.49 in 3.0 mi SSE 9.2 mph - 0.04 in   Overcast
12:51 PM 69.1 °F 66.9 °F 93% 29.49 in 3.0 mi South 11.5 mph - 0.04 in   Overcast
1:51 PM 69.1 °F 66.0 °F 90% 29.44 in 3.0 mi South 12.7 mph 19.6 mph 0.11 in Rain Light Rain
2:49 PM 69.8 °F 66.2 °F 88% 29.41 in 3.0 mi SSE 12.7 mph - N/A   Overcast
2:58 PM 71.6 °F 66.2 °F 83% 29.40 in 9.0 mi SSE 12.7 mph 23.0 mph 0.00 in Rain Light Rain
3:51 PM 70.0 °F 64.9 °F 84% 29.39 in 10.0 mi South 12.7 mph - 0.00 in   Overcast
4:33 PM 69.8 °F 64.4 °F 83% 29.37 in 10.0 mi SSE 15.0 mph - 0.00 in   Mostly Cloudy
4:51 PM 70.0 °F 63.0 °F 78% 29.37 in 10.0 mi South 12.7 mph 18.4 mph 0.00 in   Mostly Cloudy
5:51 PM 68.0 °F 62.6 °F 83% 29.35 in 10.0 mi SSE 15.0 mph 23.0 mph N/A   Mostly Cloudy
6:51 PM 66.0 °F 63.0 °F 90% 29.35 in 10.0 mi SSE 11.5 mph 20.7 mph 0.02 in   Mostly Cloudy
7:04 PM 66.2 °F 62.6 °F 88% 29.35 in 10.0 mi SSE 12.7 mph - N/A   Mostly Cloudy
7:51 PM 66.0 °F 62.1 °F 87% 29.33 in 10.0 mi South 10.4 mph - N/A   Overcast
8:37 PM 64.4 °F 57.2 °F 77% 29.33 in 10.0 mi SW 12.7 mph - 0.03 in   Scattered Clouds
8:51 PM 63.0 °F 57.9 °F 84% 29.34 in 10.0 mi SSW 11.5 mph - 0.03 in   Scattered Clouds
9:51 PM 62.1 °F 55.9 °F 80% 29.35 in 10.0 mi SW 11.5 mph 20.7 mph N/A   Mostly Cloudy
10:46 PM 60.8 °F 55.4 °F 82% 29.37 in 10.0 mi SW 12.7 mph 21.9 mph 0.00 in   Overcast
10:51 PM 61.0 °F 55.0 °F 81% 29.38 in 10.0 mi SW 12.7 mph 20.7 mph 0.00 in   Overcast
11:51 PM 59.0 °F 52.0 °F 78% 29.40 in 10.0 mi WSW 9.2 mph - 0.00 in   Mostly Cloudy